When you browse on this site, cookies collect data to enhance your experience and personalize the content and advertising you see.
Visit our Privacy Policy to learn more. By continuing to use the site, you agree to this use of cookies and data.
  • In Austria
  • List of Countries
  • For 7 days
  • Water Temperature
  • Weather Map
  • News
  • Weather Widgets
  • user-avatar
    Login

    Hourly Weather San Miguel Vindho

    Today, 8 December, Sunday

    Time Temperature Precipitation Wind Pressure Humidity
    00:00 +11°C° 0 mm 0 mps 595 mmHg 86%
    01:00 +12°C° 0 mm 1 mps 595 mmHg 84%
    02:00 +12°C° 0 mm 1 mps 595 mmHg 82%
    03:00 +11°C° 0 mm 1 mps 594 mmHg 82%
    04:00 +11°C° 0 mm 1 mps 594 mmHg 82%
    05:00 +10°C° 0 mm 1 mps 594 mmHg 82%
    06:00 +12°C° 0 mm 1 mps 595 mmHg 73%
    07:00 +13°C° 0 mm 1 mps 596 mmHg 64%
    08:00 +15°C° 0 mm 1 mps 597 mmHg 55%
    09:00 +18°C° 0 mm 1 mps 597 mmHg 46%
    10:00 +21°C° 0 mm 1 mps 598 mmHg 36%
    11:00 +23°C° 0 mm 1 mps 598 mmHg 26%
    12:00 +24°C° 0 mm 2 mps 598 mmHg 24%
    13:00 +24°C° 0 mm 2 mps 597 mmHg 22%
    14:00 +25°C° 0 mm 3 mps 597 mmHg 20%
    15:00 +22°C° 0 mm 3 mps 596 mmHg 25%
    16:00 +20°C° 0 mm 2 mps 595 mmHg 30%
    17:00 +18°C° 0 mm 2 mps 594 mmHg 34%
    18:00 +17°C° 0 mm 2 mps 594 mmHg 38%
    19:00 +16°C° 0 mm 1 mps 594 mmHg 41%
    20:00 +15°C° 0 mm 1 mps 594 mmHg 45%
    21:00 +15°C° 0 mm 1 mps 594 mmHg 46%
    22:00 +14°C° 0 mm 1 mps 594 mmHg 47%
    23:00 +14°C° 0 mm 1 mps 594 mmHg 49%

    Tomorrow, 9 December, Monday

    Time Temperature Precipitation Wind Pressure Humidity
    00:00 +13°C° 0 mm 1 mps 593 mmHg 48%
    01:00 +13°C° 0 mm 1 mps 593 mmHg 48%
    02:00 +12°C° 0 mm 1 mps 592 mmHg 48%
    03:00 +12°C° 0 mm 1 mps 592 mmHg 48%
    04:00 +12°C° 0 mm 1 mps 592 mmHg 49%
    05:00 +11°C° 0 mm 1 mps 592 mmHg 49%
    06:00 +13°C° 0 mm 1 mps 593 mmHg 44%
    07:00 +15°C° 0 mm 1 mps 594 mmHg 40%
    08:00 +18°C° 0 mm 1 mps 595 mmHg 35%
    09:00 +20°C° 0 mm 1 mps 596 mmHg 30%
    10:00 +22°C° 0 mm 1 mps 596 mmHg 24%
    11:00 +22°C° 0 mm 0 mps 597 mmHg 19%
    12:00 +25°C° 0 mm 1 mps 596 mmHg 17%
    13:00 +26°C° 0 mm 1 mps 596 mmHg 16%
    14:00 +26°C° 0 mm 1 mps 595 mmHg 15%
    15:00 +24°C° 0 mm 1 mps 595 mmHg 19%
    16:00 +22°C° 0 mm 1 mps 594 mmHg 23%
    17:00 +20°C° 0 mm 2 mps 594 mmHg 27%
    18:00 +19°C° 0 mm 1 mps 594 mmHg 32%
    19:00 +18°C° 0 mm 1 mps 594 mmHg 37%
    20:00 +16°C° 0 mm 1 mps 594 mmHg 42%
    21:00 +16°C° 0 mm 1 mps 593 mmHg 49%
    22:00 +15°C° 0 mm 1 mps 593 mmHg 56%
    23:00 +15°C° 0 mm 1 mps 593 mmHg 63%

    Day after tomorrow, 10 December, Tuesday

    Time Temperature Precipitation Wind Pressure Humidity
    00:00 +14°C° 0 mm 1 mps 593 mmHg 67%
    01:00 +14°C° 0 mm 1 mps 592 mmHg 70%
    02:00 +13°C° 0 mm 1 mps 592 mmHg 74%
    03:00 +13°C° 0 mm 1 mps 592 mmHg 76%
    04:00 +13°C° 0 mm 1 mps 592 mmHg 77%
    05:00 +12°C° 0 mm 1 mps 592 mmHg 78%
    06:00 +14°C° 0 mm 1 mps 593 mmHg 70%
    07:00 +15°C° 0 mm 1 mps 594 mmHg 63%
    08:00 +18°C° 0 mm 1 mps 595 mmHg 56%
    09:00 +19°C° 0 mm 1 mps 595 mmHg 49%
    10:00 +21°C° 0 mm 1 mps 596 mmHg 42%
    11:00 +23°C° 0 mm 1 mps 596 mmHg 35%
    12:00 +24°C° 0 mm 1 mps 596 mmHg 32%
    13:00 +24°C° 0 mm 1 mps 596 mmHg 28%
    14:00 +25°C° 0 mm 1 mps 596 mmHg 24%
    15:00 +24°C° 0 mm 1 mps 595 mmHg 28%
    16:00 +21°C° 0 mm 2 mps 595 mmHg 32%
    17:00 +20°C° 0 mm 2 mps 595 mmHg 35%
    18:00 +18°C° 0 mm 2 mps 595 mmHg 47%
    19:00 +17°C° 0 mm 2 mps 595 mmHg 60%
    20:00 +15°C° 0 mm 2 mps 595 mmHg 72%
    21:00 +14°C° 0 mm 2 mps 595 mmHg 79%
    22:00 +14°C° 0 mm 1 mps 595 mmHg 86%
    23:00 +13°C° 0 mm 1 mps 595 mmHg 94%

    11 December, Wednesday

    Time Temperature Precipitation Wind Pressure Humidity
    00:00 +13°C° 0 mm 1 mps 595 mmHg 94%
    01:00 +13°C° 0 mm 1 mps 595 mmHg 93%
    02:00 +12°C° 0 mm 1 mps 595 mmHg 93%
    03:00 +13°C° 0 mm 1 mps 595 mmHg 92%
    04:00 +13°C° 0 mm 1 mps 595 mmHg 92%
    05:00 +13°C° 0 mm 1 mps 595 mmHg 91%
    06:00 +13°C° 0 mm 2 mps 596 mmHg 87%
    07:00 +13°C° 0 mm 2 mps 596 mmHg 83%
    08:00 +13°C° 0 mm 2 mps 596 mmHg 79%
    09:00 +14°C° 0 mm 2 mps 596 mmHg 73%
    10:00 +15°C° 0 mm 2 mps 597 mmHg 66%
    11:00 +16°C° 0 mm 2 mps 597 mmHg 60%
    12:00 +17°C° 0 mm 2 mps 596 mmHg 56%
    13:00 +18°C° 0 mm 3 mps 596 mmHg 52%
    14:00 +19°C° 0 mm 3 mps 596 mmHg 49%
    15:00 +18°C° 0 mm 3 mps 595 mmHg 55%
    16:00 +16°C° 0 mm 3 mps 595 mmHg 61%
    17:00 +13°C° 0 mm 3 mps 594 mmHg 68%
    18:00 +13°C° 0 mm 2 mps 594 mmHg 72%
    19:00 +12°C° 0 mm 1 mps 595 mmHg 77%
    20:00 +12°C° 0 mm 1 mps 595 mmHg 81%
    21:00 +11°C° 0 mm 1 mps 594 mmHg 83%
    22:00 +10°C° 0 mm 0 mps 594 mmHg 85%
    23:00 +9°C° 0 mm 0 mps 594 mmHg 87%

    12 December, Thursday

    Time Temperature Precipitation Wind Pressure Humidity
    00:00 +9°C° 0 mm 0 mps 594 mmHg 86%
    01:00 +10°C° 0 mm 1 mps 593 mmHg 86%
    02:00 +10°C° 0 mm 1 mps 593 mmHg 85%
    03:00 +10°C° 0 mm 1 mps 593 mmHg 84%
    04:00 +10°C° 0 mm 1 mps 593 mmHg 83%
    05:00 +10°C° 0 mm 1 mps 593 mmHg 82%
    06:00 +12°C° 0 mm 1 mps 594 mmHg 73%
    07:00 +14°C° 0 mm 1 mps 595 mmHg 65%
    08:00 +16°C° 0 mm 1 mps 596 mmHg 56%
    09:00 +19°C° 0 mm 1 mps 597 mmHg 49%
    10:00 +21°C° 0 mm 1 mps 597 mmHg 41%
    11:00 +23°C° 0 mm 1 mps 598 mmHg 33%
    12:00 +23°C° 0 mm 1 mps 597 mmHg 33%
    13:00 +24°C° 0 mm 2 mps 597 mmHg 33%
    14:00 +24°C° 0 mm 3 mps 596 mmHg 33%
    15:00 +21°C° 0.1 mm 2 mps 596 mmHg 39%
    16:00 +20°C° 0.1 mm 2 mps 595 mmHg 44%
    17:00 +19°C° 0.1 mm 1 mps 595 mmHg 50%
    18:00 +19°C° 0.1 mm 1 mps 595 mmHg 53%
    19:00 +18°C° 0.1 mm 1 mps 595 mmHg 56%
    20:00 +16°C° 0.1 mm 1 mps 595 mmHg 59%
    21:00 +16°C° 0 mm 1 mps 595 mmHg 61%
    22:00 +15°C° 0 mm 1 mps 595 mmHg 62%
    23:00 +15°C° 0 mm 1 mps 595 mmHg 64%

    13 December, Friday

    Time Temperature Precipitation Wind Pressure Humidity
    00:00 +14°C° 0 mm 1 mps 594 mmHg 66%
    01:00 +14°C° 0 mm 1 mps 594 mmHg 67%
    02:00 +14°C° 0 mm 1 mps 594 mmHg 68%
    03:00 +13°C° 0 mm 1 mps 594 mmHg 69%
    04:00 +13°C° 0 mm 1 mps 594 mmHg 70%
    05:00 +13°C° 0 mm 1 mps 594 mmHg 71%
    06:00 +14°C° 0 mm 1 mps 595 mmHg 66%
    07:00 +15°C° 0 mm 1 mps 596 mmHg 61%
    08:00 +16°C° 0 mm 1 mps 596 mmHg 56%
    09:00 +19°C° 0 mm 1 mps 597 mmHg 51%
    10:00 +20°C° 0 mm 1 mps 597 mmHg 45%
    11:00 +22°C° 0 mm 1 mps 597 mmHg 40%
    12:00 +22°C° 0 mm 1 mps 597 mmHg 37%
    13:00 +23°C° 0 mm 2 mps 596 mmHg 33%
    14:00 +24°C° 0 mm 2 mps 596 mmHg 30%
    15:00 +21°C° 0 mm 3 mps 595 mmHg 37%
    16:00 +20°C° 0 mm 3 mps 595 mmHg 43%
    17:00 +18°C° 0 mm 3 mps 594 mmHg 50%
    18:00 +17°C° 0 mm 2 mps 594 mmHg 58%
    19:00 +15°C° 0 mm 1 mps 594 mmHg 66%
    20:00 +13°C° 0 mm 0 mps 594 mmHg 74%
    21:00 +13°C° 0 mm 1 mps 594 mmHg 73%
    22:00 +13°C° 0 mm 1 mps 593 mmHg 73%
    23:00 +13°C° 0 mm 1 mps 593 mmHg 72%
    Show more